FW6644 Weather Reports


Display with metric or nautical units.
time (UTC)temp
F
wind
direction
speed
MPH
gust
MPH
rain 1hr
in
rain 24hr
in
rain mn
in
humidity
%
barometer
mb
20260503173120 88 125 6.0 12.0 0.00 0.00 0.00 24 1008.7
20260503171558 87 268 4.0 9.0 0.00 0.00 0.00 24 1008.5
20260503081506 78 27 0.0 2.0 0.00 0.00 0.00 25 1008.1
20260503071617 79 120 0.0 1.0 0.00 0.00 0.00 23 1008.1
20260503070109 80 92 0.0 3.0 0.00 0.00 0.00 23 1008.1
20260503054554 81 91 0.0 1.0 0.00 0.00 0.00 21 1007.8
20260503053053 80 77 0.0 2.0 0.00 0.00 0.00 22 1007.7
20260503051554 80 154 0.0 1.0 0.00 0.00 0.00 20 1007.8
20260503050052 81 41 0.0 0.0 0.00 0.00 0.00 20 1007.7
20260503044655 82 41 0.0 1.0 0.00 0.00 0.00 20 1007.5
20260503043051 83 51 0.0 1.0 0.00 0.00 0.00 19 1007.3
20260503041603 82 74 0.0 0.0 0.00 0.00 0.00 19 1007.1
20260503040056 83 74 0.0 0.0 0.00 0.00 0.00 18 1006.9
20260503034606 83 73 0.0 0.0 0.00 0.00 0.00 18 1006.7
20260503033052 83 73 0.0 0.0 0.00 0.00 0.00 17 1006.6
20260503031548 85 72 0.0 0.0 0.00 0.00 0.00 16 1006.5
20260503030053 85 72 0.0 0.0 0.00 0.00 0.00 15 1006.5
20260503024551 84 72 0.0 0.0 0.00 0.00 0.00 15 1006.4
20260503023046 85 72 0.0 0.0 0.00 0.00 0.00 15 1006.3
20260503021547 86 75 0.0 0.0 0.00 0.00 0.00 14 1006.3
20260503020046 88 75 0.0 0.0 0.00 0.00 0.00 13 1006.3
20260503014547 89 85 0.0 3.0 0.00 0.00 0.00 13 1006.5
20260503013041 90 138 0.0 5.0 0.00 0.00 0.00 12 1006.5
20260503011543 91 314 1.0 4.0 0.00 0.00 0.00 12 1006.6
20260503010044 92 186 0.0 5.0 0.00 0.00 0.00 12 1006.5
20260503004539 92 138 0.0 4.0 0.00 0.00 0.00 12 1006.6
20260503003039 93 276 0.0 4.0 0.00 0.00 0.00 11 1006.6
20260503001536 94 51 1.0 3.0 0.00 0.00 0.00 11 1006.7
20260503000036 94 117 0.0 4.0 0.00 0.00 0.00 12 1006.8
20260502234535 92 348 2.0 4.0 0.00 0.00 0.00 12 1006.8
20260502233036 93 176 1.0 11.0 0.00 0.00 0.00 12 1006.9
20260502231533 95 179 1.0 9.0 0.00 0.00 0.00 11 1006.9
20260502230031 94 134 1.0 7.0 0.00 0.00 0.00 12 1007.0
20260502224528 94 204 3.0 9.0 0.00 0.00 0.00 11 1007.3
20260502223026 91 18 1.0 7.0 0.00 0.00 0.00 13 1007.5
20260502221525 94 259 0.0 6.0 0.00 0.00 0.00 12 1007.7
20260502220025 95 120 1.0 7.0 0.00 0.00 0.00 12 1007.9
20260502214527 94 92 2.0 11.0 0.00 0.00 0.00 12 1008.2
20260502213017 94 111 1.0 9.0 0.00 0.00 0.00 11 1008.3
20260502211527 93 354 4.0 8.0 0.00 0.00 0.00 12 1008.7
20260502210012 91 9 1.0 7.0 0.00 0.00 0.00 16 1008.8
20260502204510 91 129 2.0 0.0 0.00 0.00 0.00 16 1008.9
20260502203006 0 0.0 0.0 0.00 0.00 0.00 1009.2
20260502201502 0 0.0 0.0 0.00 0.00 0.00 1009.5
20260502200106 0 0.0 0.0 0.00 0.00 0.00 1009.7
20260502194606 0 0.0 0.0 0.00 0.00 0.00 1009.9
20260502193049 0 0.0 0.0 0.00 0.00 0.00 1010.1
20260502191544 0 0.0 0.0 0.00 0.00 0.00 1010.3
20260502190040 0 0.0 0.0 0.00 0.00 0.00 1010.5
20260502184547 0 0.0 0.0 0.00 0.00 0.00 1010.8
20260502183031 0 0.0 0.0 0.00 0.00 0.00 1010.9
20260502181529 88 158 7.0 13.0 0.00 0.00 0.00 21 1011.3